Simultaneous Nadir Overpasses (SNOs) Predictions

Prediction of SNOs between FY3D and NOAA-19 Satellite Orbit:

Table of predicted SNOs for the next 14.0 days since TLE Epoch: 5/8/2021
Index Date (FY3D) Time (FY3D) Lat,Lon (FY3D) SZA (FY3D ) Date (NOAA-19) Time (NOAA-19) Lat,Lon (NOAA-19) SZA (NOAA-19 ) Distance(km) Time Diff (sec)
1 05/09/2021 10:24:02 -78.50, 179.05 117.96 05/09/2021 10:22:49 -78.49, 178.17 117.87 19.59 73
2 05/09/2021 11:14:49 78.57, -14.03 62.13 05/09/2021 11:13:49 78.59, -13.92 62.16 2.99 60
3 05/09/2021 12:05:33 -78.58, 153.21 117.87 05/09/2021 12:04:47 -78.57, 153.24 117.86 1.18 46
4 05/09/2021 12:56:18 78.57, -39.41 62.11 05/09/2021 12:55:49 78.60, -39.33 62.14 3.60 29
5 05/09/2021 13:47:02 -78.58, 127.84 117.88 05/09/2021 13:46:47 -78.58, 127.83 117.88 0.24 15
6 05/09/2021 14:37:48 78.61, -65.02 62.15 05/09/2021 14:37:50 78.58, -64.98 62.12 3.75 2
7 05/09/2021 15:28:31 -78.58, 102.46 117.90 05/09/2021 15:28:47 -78.60, 102.42 117.89 1.65 16
8 05/09/2021 16:19:17 78.61, -90.40 62.13 05/09/2021 16:19:50 78.59, -90.39 62.10 2.35 33
9 05/09/2021 17:10:00 -78.59, 77.08 117.92 05/09/2021 17:10:47 -78.61, 77.01 117.91 3.05 47
10 05/09/2021 18:00:46 78.61,-115.78 62.12 05/09/2021 18:01:50 78.60,-115.79 62.09 1.07 64
11 05/09/2021 18:51:33 -78.74, 50.76 117.72 05/09/2021 18:52:44 -78.73, 52.34 117.89 34.33 71



Historial Predications of SNOs between FY3D and NOAA-19
